Language: 


Des rapports , des résumés tant et plus, au choix de chacun....


Données Historiques de Météogheer
Journalier Rapport pour Aoûut 5, 2017 Unitée:  Métrique    Impériale   Les deux
Suivant Jour »
Journalier Hebdomadaire Mensuel Annuel Sur mesure
  Max: Min: Moyenne:
Température: 24.5 °C 10.6 °C 18.3 °C
Point de rosée: 18.0 °C 9.0 °C 13.6 °C
Humidité: 94% 45% 75%
Vent: 27.0km/h 0.0km/h 5.5km/h
Rafales: 38.5km/h - -
Vent- - West
Pression: 1019.9 hPa 1012.1 hPa -
Pluie: 1.0 mm    
Historical Graphs
 
 
Données tabulaires pour Aoûut 5, 2017
Heure Température Point de rosée Pression Vent Vent Rafales Humidité Pluie Taux (Horaire) Conditions
00:03 17.1 °C 14.0 °C 1014.1 hPa Calm   10.5 km/h 82% 0.0 mm
00:09 17.1 °C 14.0 °C 1014.1 hPa West 4.7 km/h 10.5 km/h 82% 0.0 mm
00:14 17.0 °C 14.0 °C 1014.1 hPa Calm   9.7 km/h 82% 0.0 mm
00:19 17.0 °C 14.0 °C 1014.1 hPa Calm   9.7 km/h 82% 0.0 mm
00:24 16.9 °C 14.0 °C 1014.1 hPa Calm   6.4 km/h 83% 0.0 mm
00:29 16.7 °C 14.0 °C 1013.1 hPa Calm   6.1 km/h 83% 0.0 mm
00:34 16.6 °C 14.0 °C 1013.1 hPa Calm     83% 0.0 mm
00:39 16.4 °C 13.0 °C 1013.1 hPa Calm     83% 0.0 mm
00:44 16.2 °C 14.0 °C 1014.1 hPa Calm     84% 0.0 mm
00:49 16.1 °C 13.0 °C 1014.1 hPa Calm     84% 0.0 mm
00:54 16.0 °C 14.0 °C 1014.1 hPa Calm     85% 0.0 mm
00:59 15.9 °C 14.0 °C 1014.1 hPa Calm     87% 0.0 mm
01:04 16.0 °C 14.0 °C 1014.1 hPa Calm     87% 0.0 mm
01:09 16.0 °C 14.0 °C 1014.1 hPa Calm     87% 0.0 mm
01:14 16.1 °C 14.0 °C 1013.1 hPa Calm     87% 0.0 mm
01:19 16.1 °C 14.0 °C 1013.1 hPa Calm     87% 0.0 mm
01:24 16.1 °C 14.0 °C 1013.1 hPa WSW 9.7 km/h 9.7 km/h 88% 0.0 mm
01:29 16.2 °C 14.0 °C 1014.1 hPa West 4.3 km/h 10.1 km/h 88% 0.0 mm
01:34 16.3 °C 14.0 °C 1014.1 hPa Calm   10.1 km/h 88% 0.0 mm
01:39 16.4 °C 14.0 °C 1014.1 hPa SW 5.0 km/h 9.3 km/h 88% 0.0 mm
01:44 16.4 °C 14.0 °C 1014.1 hPa Calm   6.9 km/h 88% 0.0 mm
01:49 16.4 °C 14.0 °C 1014.1 hPa Calm   6.1 km/h 88% 0.0 mm
01:54 16.4 °C 14.0 °C 1014.1 hPa Calm   6.1 km/h 88% 0.0 mm
01:59 16.4 °C 14.0 °C 1014.1 hPa Calm   6.1 km/h 88% 0.0 mm
02:04 16.5 °C 15.0 °C 1014.1 hPa SW 5.5 km/h 7.9 km/h 88% 0.0 mm
02:09 16.5 °C 15.0 °C 1014.1 hPa West 5.8 km/h 7.9 km/h 88% 0.0 mm
02:14 16.5 °C 15.0 °C 1013.1 hPa Calm   6.9 km/h 88% 0.0 mm
02:19 16.5 °C 15.0 °C 1013.1 hPa WSW 4.3 km/h 7.9 km/h 88% 0.0 mm
02:24 16.5 °C 15.0 °C 1013.1 hPa WSW 4.7 km/h 8.7 km/h 88% 0.0 mm
02:29 16.5 °C 15.0 °C 1013.1 hPa Calm   8.7 km/h 88% 0.0 mm
02:34 16.6 °C 15.0 °C 1013.1 hPa WSW 6.4 km/h 12.6 km/h 87% 0.0 mm
02:39 16.6 °C 15.0 °C 1013.1 hPa Calm   12.6 km/h 87% 0.0 mm
02:45 16.6 °C 14.0 °C 1012.1 hPa WSW 1.4 km/h 7.9 km/h 86% 0.0 mm
02:50 16.6 °C 14.0 °C 1012.1 hPa SSW 5.5 km/h 8.7 km/h 86% 0.0 mm
02:55 16.5 °C 14.0 °C 1012.1 hPa SW 5.5 km/h 8.7 km/h 86% 0.0 mm
03:00 16.5 °C 14.0 °C 1013.1 hPa Calm   6.9 km/h 86% 0.0 mm
03:05 16.5 °C 14.0 °C 1013.1 hPa WSW 4.7 km/h 8.7 km/h 86% 0.0 mm
03:10 16.5 °C 14.0 °C 1013.1 hPa SSW 6.1 km/h 8.7 km/h 86% 0.0 mm
03:15 16.5 °C 14.0 °C 1013.1 hPa Calm   7.9 km/h 85% 0.0 mm
03:20 16.5 °C 14.0 °C 1013.1 hPa Calm   7.9 km/h 85% 0.0 mm
03:25 16.5 °C 14.0 °C 1013.1 hPa Calm   8.7 km/h 85% 0.0 mm
03:30 16.5 °C 14.0 °C 1013.1 hPa Calm   8.7 km/h 85% 0.0 mm
03:35 16.4 °C 14.0 °C 1013.1 hPa Calm   4.3 km/h 85% 0.0 mm
03:40 16.3 °C 14.0 °C 1013.1 hPa Calm   4.3 km/h 85% 0.0 mm
03:45 16.2 °C 14.0 °C 1013.1 hPa Calm   3.2 km/h 86% 0.0 mm
03:50 16.1 °C 14.0 °C 1013.1 hPa Calm   5.8 km/h 86% 0.0 mm
03:55 16.1 °C 14.0 °C 1013.1 hPa Calm   5.8 km/h 86% 0.0 mm
04:00 16.2 °C 14.0 °C 1013.1 hPa Calm   1.4 km/h 86% 0.0 mm
04:05 16.2 °C 14.0 °C 1013.1 hPa Calm   4.3 km/h 86% 0.0 mm
04:10 16.2 °C 14.0 °C 1013.1 hPa Calm   4.3 km/h 86% 0.0 mm
04:15 16.1 °C 14.0 °C 1013.1 hPa Calm   4.7 km/h 87% 0.0 mm
04:20 16.1 °C 14.0 °C 1013.1 hPa Calm   4.7 km/h 87% 0.0 mm
04:25 16.0 °C 14.0 °C 1013.1 hPa Calm     87% 0.0 mm
04:30 16.0 °C 14.0 °C 1013.1 hPa Calm     87% 0.0 mm
04:35 15.9 °C 14.0 °C 1013.1 hPa Calm     88% 0.0 mm
04:40 15.9 °C 14.0 °C 1013.1 hPa Calm     88% 0.0 mm
04:45 15.9 °C 14.0 °C 1013.1 hPa Calm     88% 0.0 mm
04:51 15.8 °C 14.0 °C 1013.1 hPa Calm     88% 0.0 mm
04:56 15.8 °C 14.0 °C 1013.1 hPa Calm   3.5 km/h 89% 0.0 mm
05:01 15.8 °C 14.0 °C 1013.1 hPa Calm   3.5 km/h 89% 0.0 mm
05:06 15.7 °C 14.0 °C 1013.1 hPa Calm   3.2 km/h 89% 0.0 mm
05:11 15.6 °C 14.0 °C 1013.1 hPa Calm   3.2 km/h 89% 0.0 mm
05:19 15.5 °C 14.0 °C 1013.1 hPa Calm     90% 0.0 mm
05:24 15.4 °C 14.0 °C 1013.1 hPa Calm   5.5 km/h 90% 0.0 mm
05:25 15.4 °C 14.0 °C 1013.1 hPa Calm   5.5 km/h 90% 0.0 mm
05:27 15.4 °C 14.0 °C 1013.1 hPa Calm   5.5 km/h 90% 0.0 mm
05:32 15.4 °C 14.0 °C 1013.1 hPa Calm   5.5 km/h 90% 0.0 mm
05:37 15.3 °C 14.0 °C 1013.1 hPa Calm     90% 0.0 mm
05:42 15.2 °C 14.0 °C 1013.1 hPa Calm     90% 0.0 mm
05:47 15.2 °C 14.0 °C 1013.1 hPa Calm     91% 0.0 mm
05:53 15.1 °C 14.0 °C 1013.1 hPa Calm     91% 0.0 mm
05:58 15.1 °C 14.0 °C 1013.1 hPa SSW 4.7 km/h 4.7 km/h 91% 0.0 mm
06:03 15.1 °C 14.0 °C 1013.1 hPa SW 4.3 km/h 8.7 km/h 92% 0.0 mm
06:08 15.2 °C 14.0 °C 1013.1 hPa Calm   8.7 km/h 92% 0.0 mm
06:13 15.2 °C 14.0 °C 1013.1 hPa Calm   5.8 km/h 92% 0.0 mm
06:18 15.2 °C 14.0 °C 1013.1 hPa Calm   3.2 km/h 92% 0.0 mm
06:23 15.2 °C 14.0 °C 1013.1 hPa Calm   6.1 km/h 93% 0.0 mm
06:28 15.3 °C 14.0 °C 1013.1 hPa Calm   6.1 km/h 93% 0.0 mm
06:33 15.2 °C 14.0 °C 1013.1 hPa Calm   6.9 km/h 93% 0.0 mm
06:38 15.3 °C 14.0 °C 1013.1 hPa South 2.6 km/h 6.9 km/h 93% 0.0 mm
06:43 15.3 °C 14.0 °C 1012.1 hPa Calm   7.9 km/h 94% 0.0 mm
06:48 15.3 °C 14.0 °C 1012.1 hPa SW 6.4 km/h 7.9 km/h 94% 0.0 mm
06:53 15.3 °C 14.0 °C 1012.1 hPa Calm   6.4 km/h 94% 0.0 mm
06:58 15.4 °C 14.0 °C 1013.1 hPa WSW 5.0 km/h 5.8 km/h 94% 0.0 mm
07:03 15.4 °C 14.0 °C 1013.1 hPa WSW 3.2 km/h 9.7 km/h 94% 0.0 mm
07:08 15.5 °C 15.0 °C 1013.1 hPa SSW 1.8 km/h 9.7 km/h 94% 0.0 mm
07:13 15.5 °C 15.0 °C 1012.1 hPa SW 4.3 km/h 9.7 km/h 94% 0.0 mm
07:18 15.5 °C 15.0 °C 1012.1 hPa Calm   9.0 km/h 94% 0.0 mm
07:23 15.5 °C 15.0 °C 1012.1 hPa SW 3.5 km/h 9.0 km/h 94% 0.0 mm
07:28 15.5 °C 15.0 °C 1013.1 hPa Calm   7.9 km/h 94% 0.0 mm
07:33 15.6 °C 15.0 °C 1013.1 hPa Calm   5.8 km/h 94% 0.0 mm
07:38 15.9 °C 15.0 °C 1013.1 hPa Calm   5.8 km/h 94% 0.0 mm
07:43 16.0 °C 15.0 °C 1013.1 hPa Calm   5.5 km/h 94% 0.0 mm
07:48 16.1 °C 15.0 °C 1013.1 hPa Calm   7.9 km/h 93% 0.0 mm
07:53 16.1 °C 15.0 °C 1013.1 hPa Calm   7.9 km/h 93% 0.0 mm
07:58 16.1 °C 15.0 °C 1013.1 hPa Calm   5.8 km/h 93% 0.0 mm
08:03 16.5 °C 16.0 °C 1013.1 hPa Calm   5.0 km/h 93% 0.0 mm
08:08 16.8 °C 16.0 °C 1013.1 hPa Calm   4.3 km/h 93% 0.0 mm
08:14 16.8 °C 15.0 °C 1013.1 hPa SSW 9.3 km/h 9.3 km/h 92% 0.0 mm
08:19 16.8 °C 15.0 °C 1013.1 hPa WSW 8.7 km/h 12.2 km/h 92% 0.0 mm
08:24 17.0 °C 16.0 °C 1013.1 hPa West 6.9 km/h 12.6 km/h 92% 0.0 mm
08:29 17.5 °C 16.0 °C 1013.1 hPa West 10.1 km/h 12.6 km/h 91% 0.0 mm
08:34 17.7 °C 16.0 °C 1013.1 hPa West 11.9 km/h 14.0 km/h 91% 0.0 mm
08:39 18.0 °C 16.0 °C 1013.1 hPa West 12.2 km/h 15.1 km/h 90% 0.0 mm
08:44 18.1 °C 16.0 °C 1013.1 hPa West 6.4 km/h 15.1 km/h 89% 0.0 mm
08:49 18.3 °C 17.0 °C 1013.1 hPa West 12.2 km/h 15.4 km/h 89% 0.0 mm
08:54 18.6 °C 17.0 °C 1013.1 hPa West 14.8 km/h 15.4 km/h 88% 0.0 mm
08:59 18.7 °C 17.0 °C 1013.1 hPa WSW 10.5 km/h 16.6 km/h 87% 0.0 mm
09:04 18.9 °C 17.0 °C 1013.1 hPa West 9.3 km/h 16.6 km/h 87% 0.0 mm
09:09 18.8 °C 16.0 °C 1013.1 hPa West 12.2 km/h 14.0 km/h 86% 0.0 mm
09:14 19.1 °C 17.0 °C 1013.1 hPa West 12.2 km/h 16.3 km/h 85% 0.0 mm
09:19 19.3 °C 17.0 °C 1013.1 hPa WSW 9.0 km/h 16.6 km/h 84% 0.0 mm
09:24 19.3 °C 16.0 °C 1013.1 hPa West 7.9 km/h 16.6 km/h 83% 0.0 mm
09:29 19.7 °C 17.0 °C 1013.1 hPa WSW 12.6 km/h 17.2 km/h 82% 0.0 mm
09:34 19.8 °C 17.0 °C 1013.1 hPa WSW 11.6 km/h 17.2 km/h 82% 0.0 mm
09:39 19.7 °C 16.0 °C 1013.1 hPa WSW 10.1 km/h 16.6 km/h 81% 0.0 mm
09:45 19.6 °C 16.0 °C 1014.1 hPa WSW 9.7 km/h 13.0 km/h 81% 0.0 mm
09:50 20.0 °C 17.0 °C 1014.1 hPa West 2.1 km/h 14.0 km/h 80% 0.0 mm
09:55 20.2 °C 17.0 °C 1014.1 hPa West 9.7 km/h 16.3 km/h 80% 0.0 mm
10:00 20.1 °C 16.0 °C 1013.1 hPa West 10.1 km/h 18.3 km/h 79% 0.0 mm
10:05 20.1 °C 16.0 °C 1013.1 hPa West 13.0 km/h 18.3 km/h 79% 0.0 mm
10:10 19.8 °C 16.0 °C 1013.1 hPa West 9.3 km/h 14.3 km/h 78% 0.0 mm
10:15 20.3 °C 16.0 °C 1014.1 hPa WSW 21.2 km/h 21.2 km/h 78% 0.0 mm
10:20 20.7 °C 16.0 °C 1014.1 hPa West 16.9 km/h 21.2 km/h 76% 0.0 mm
10:25 20.9 °C 17.0 °C 1014.1 hPa West 14.3 km/h 21.2 km/h 75% 0.0 mm
10:30 21.3 °C 17.0 °C 1014.1 hPa West 16.9 km/h 18.3 km/h 74% 0.0 mm
10:35 21.4 °C 16.0 °C 1014.1 hPa West 5.5 km/h 20.6 km/h 72% 0.0 mm
10:40 21.5 °C 16.0 °C 1014.1 hPa West 9.3 km/h 24.5 km/h 71% 0.0 mm
10:45 21.9 °C 16.0 °C 1014.1 hPa WSW 12.2 km/h 24.5 km/h 69% 0.0 mm
10:50 22.5 °C 17.0 °C 1014.1 hPa WSW 6.9 km/h 20.6 km/h 68% 0.0 mm
10:55 22.8 °C 16.0 °C 1014.1 hPa WNW 11.6 km/h 17.2 km/h 67% 0.0 mm
11:00 22.2 °C 16.0 °C 1014.1 hPa WSW 11.9 km/h 16.3 km/h 67% 0.0 mm
11:05 21.2 °C 15.0 °C 1014.1 hPa West 21.2 km/h 25.6 km/h 68% 0.0 mm
11:10 19.7 °C 15.0 °C 1014.1 hPa West 10.1 km/h 29.1 km/h 75% 0.0 mm
11:15 18.9 °C 16.0 °C 1014.1 hPa WSW 10.8 km/h 29.1 km/h 80% 0.5 mm
11:20 18.4 °C 15.0 °C 1014.1 hPa WSW 10.1 km/h 14.0 km/h 82% 1.0 mm
11:25 18.3 °C 16.0 °C 1014.1 hPa West 8.7 km/h 13.7 km/h 85% 1.0 mm
11:30 18.9 °C 17.0 °C 1014.1 hPa West 2.1 km/h 12.6 km/h 88% 1.0 mm
11:35 19.7 °C 18.0 °C 1014.1 hPa WSW 10.5 km/h 12.2 km/h 90% 1.0 mm
11:40 20.0 °C 18.0 °C 1014.1 hPa WSW 9.7 km/h 12.2 km/h 90% 1.0 mm
11:46 19.9 °C 18.0 °C 1014.1 hPa West 12.2 km/h 14.0 km/h 89% 1.0 mm
11:51 19.3 °C 17.0 °C 1014.1 hPa WSW 4.7 km/h 14.0 km/h 86% 1.0 mm
11:56 18.7 °C 16.0 °C 1015.1 hPa NNW 6.4 km/h 15.8 km/h 84% 1.0 mm
12:01 18.4 °C 16.0 °C 1015.1 hPa West 4.0 km/h 15.8 km/h 86% 1.0 mm
12:06 18.3 °C 16.0 °C 1015.1 hPa WNW 6.4 km/h 10.5 km/h 87% 1.0 mm
12:11 18.3 °C 16.0 °C 1015.1 hPa West 3.5 km/h 9.3 km/h 88% 1.0 mm
12:16 18.9 °C 17.0 °C 1015.1 hPa West 9.0 km/h 13.7 km/h 89% 0.0 mm
12:21 19.5 °C 18.0 °C 1015.1 hPa NNW 5.0 km/h 13.7 km/h 90% 0.0 mm
12:26 19.5 °C 18.0 °C 1015.1 hPa North 3.5 km/h 13.7 km/h 89% 0.0 mm
12:31 19.3 °C 17.0 °C 1015.1 hPa NW 7.9 km/h 13.7 km/h 87% 0.0 mm
12:36 19.0 °C 17.0 °C 1015.1 hPa North 9.0 km/h 12.2 km/h 86% 0.0 mm
12:41 19.0 °C 17.0 °C 1015.1 hPa North 6.9 km/h 9.3 km/h 86% 0.0 mm
12:46 19.4 °C 17.0 °C 1015.1 hPa WSW 4.0 km/h 9.7 km/h 86% 0.0 mm
12:51 20.1 °C 18.0 °C 1015.1 hPa NE 4.0 km/h 9.7 km/h 86% 0.0 mm
12:56 20.4 °C 18.0 °C 1015.1 hPa Calm   10.1 km/h 84% 0.0 mm
13:01 21.0 °C 17.0 °C 1015.1 hPa North 10.8 km/h 12.2 km/h 77% 0.0 mm
13:06 20.8 °C 17.0 °C 1015.1 hPa North 2.1 km/h 13.0 km/h 79% 0.0 mm
13:11 20.4 °C 16.0 °C 1015.1 hPa ESE 8.7 km/h 13.0 km/h 77% 0.0 mm
13:16 20.0 °C 16.0 °C 1015.1 hPa North 6.4 km/h 15.4 km/h 77% 0.0 mm
13:21 20.0 °C 16.0 °C 1015.1 hPa North 2.6 km/h 15.4 km/h 77% 0.0 mm
13:27 19.9 °C 16.0 °C 1015.1 hPa Calm   11.6 km/h 77% 0.0 mm
13:32 19.9 °C 16.0 °C 1015.1 hPa WNW 8.7 km/h 10.8 km/h 77% 0.0 mm
13:37 20.8 °C 16.0 °C 1015.1 hPa WNW 6.9 km/h 13.0 km/h 76% 0.0 mm
13:42 22.0 °C 17.0 °C 1015.1 hPa WNW 15.1 km/h 15.1 km/h 73% 0.0 mm
13:47 21.7 °C 16.0 °C 1015.1 hPa North 4.7 km/h 15.1 km/h 71% 0.0 mm
13:52 21.8 °C 16.0 °C 1015.1 hPa NE 5.5 km/h 13.0 km/h 70% 0.0 mm
13:57 22.4 °C 15.0 °C 1015.1 hPa North 4.0 km/h 13.0 km/h 64% 0.0 mm
14:02 21.9 °C 15.0 °C 1015.1 hPa NNW 5.0 km/h 13.0 km/h 64% 0.0 mm
14:07 21.6 °C 15.0 °C 1015.1 hPa NW 9.7 km/h 13.7 km/h 64% 0.0 mm
14:12 21.7 °C 15.0 °C 1015.1 hPa NW 4.7 km/h 13.7 km/h 65% 0.0 mm
14:17 22.0 °C 15.0 °C 1015.1 hPa NNW 5.8 km/h 10.5 km/h 63% 0.0 mm
14:22 22.3 °C 15.0 °C 1015.1 hPa NNE 5.5 km/h 10.5 km/h 64% 0.0 mm
14:27 21.7 °C 14.0 °C 1015.1 hPa North 6.1 km/h 10.1 km/h 61% 0.0 mm
14:32 22.4 °C 15.0 °C 1015.1 hPa WNW 4.3 km/h 13.0 km/h 62% 0.0 mm
14:37 22.6 °C 15.0 °C 1015.1 hPa WSW 5.0 km/h 13.0 km/h 61% 0.0 mm
14:42 21.9 °C 14.0 °C 1015.1 hPa NNW 5.8 km/h 11.6 km/h 59% 0.0 mm
14:47 22.0 °C 14.0 °C 1015.1 hPa NE 9.0 km/h 11.6 km/h 60% 0.0 mm
14:53 21.6 °C 13.0 °C 1015.1 hPa North 12.6 km/h 13.0 km/h 58% 0.0 mm
14:58 21.5 °C 13.0 °C 1015.1 hPa North 4.3 km/h 13.0 km/h 59% 0.0 mm
15:03 21.2 °C 13.0 °C 1015.1 hPa NNW 5.8 km/h 12.6 km/h 60% 0.0 mm
15:08 21.2 °C 13.0 °C 1015.1 hPa NNW 9.0 km/h 11.6 km/h 58% 0.0 mm
15:13 21.4 °C 13.0 °C 1016.1 hPa SSW 6.9 km/h 11.6 km/h 59% 0.0 mm
15:18 21.1 °C 13.0 °C 1016.1 hPa WNW 6.9 km/h 7.9 km/h 59% 0.0 mm
15:23 20.9 °C 13.0 °C 1016.1 hPa NNE 4.0 km/h 9.0 km/h 60% 0.0 mm
15:28 21.0 °C 13.0 °C 1016.1 hPa West 3.5 km/h 9.0 km/h 60% 0.0 mm
15:33 21.2 °C 13.0 °C 1016.1 hPa North 6.9 km/h 7.9 km/h 60% 0.0 mm
15:38 21.3 °C 13.0 °C 1016.1 hPa NNW 11.1 km/h 11.1 km/h 57% 0.0 mm
15:43 22.3 °C 13.0 °C 1016.1 hPa NNW 6.9 km/h 11.1 km/h 57% 0.0 mm
15:48 23.2 °C 14.0 °C 1016.1 hPa North 12.6 km/h 12.6 km/h 54% 0.0 mm
15:53 23.6 °C 14.0 °C 1016.1 hPa NNE 5.0 km/h 15.8 km/h 53% 0.0 mm
15:58 24.3 °C 14.0 °C 1016.1 hPa WNW 11.6 km/h 15.8 km/h 53% 0.0 mm
16:03 24.5 °C 14.0 °C 1016.1 hPa North 5.8 km/h 12.2 km/h 51% 0.0 mm
16:08 24.5 °C 13.0 °C 1016.1 hPa SW 7.6 km/h 12.6 km/h 49% 0.0 mm
16:13 23.2 °C 12.0 °C 1016.1 hPa West 6.9 km/h 13.0 km/h 49% 0.0 mm
16:18 23.0 °C 12.0 °C 1016.1 hPa West 10.5 km/h 14.8 km/h 48% 0.0 mm
16:23 23.8 °C 13.0 °C 1016.1 hPa NNE 2.1 km/h 14.8 km/h 49% 0.0 mm
16:29 24.1 °C 12.0 °C 1016.8 hPa West 14.0 km/h 19.8 km/h 46% 0.0 mm
16:34 23.4 °C 12.0 °C 1016.8 hPa WSW 7.6 km/h 19.8 km/h 47% 0.0 mm
16:39 23.3 °C 12.0 °C 1016.8 hPa WSW 6.9 km/h 15.4 km/h 47% 0.0 mm
16:44 23.9 °C 12.0 °C 1016.1 hPa West 13.0 km/h 15.8 km/h 47% 0.0 mm
16:47 24.0 °C 12.0 °C 1016.1 hPa West 10.1 km/h 15.8 km/h 46% 0.0 mm
16:52 24.3 °C 12.0 °C 1016.1 hPa WSW 5.0 km/h 17.7 km/h 45% 0.0 mm
16:57 24.5 °C 12.0 °C 1016.8 hPa SW 1.8 km/h 17.7 km/h 45% 0.0 mm
17:02 24.2 °C 13.0 °C 1016.8 hPa West 16.9 km/h 16.9 km/h 47% 0.0 mm
17:07 23.6 °C 12.0 °C 1016.8 hPa West 6.9 km/h 16.9 km/h 46% 0.0 mm
17:08 23.3 °C 11.0 °C 1016.8 hPa SW 8.7 km/h 16.9 km/h 46% 0.0 mm
17:14 22.7 °C 11.0 °C 1016.8 hPa WSW 14.0 km/h 14.3 km/h 48% 0.0 mm
17:19 22.3 °C 11.0 °C 1016.8 hPa West 9.0 km/h 14.0 km/h 49% 0.0 mm
17:24 21.9 °C 11.0 °C 1016.8 hPa WNW 9.3 km/h 14.0 km/h 50% 0.0 mm
17:29 21.8 °C 11.0 °C 1016.8 hPa West 5.5 km/h 14.0 km/h 51% 0.0 mm
17:34 22.4 °C 12.0 °C 1016.8 hPa West 9.0 km/h 19.5 km/h 51% 0.0 mm
17:39 23.3 °C 12.0 °C 1016.8 hPa WSW 21.2 km/h 28.5 km/h 49% 0.0 mm
17:44 23.5 °C 13.0 °C 1018.2 hPa West 20.1 km/h 28.5 km/h 49% 0.0 mm
17:54 23.4 °C 12.0 °C 1018.2 hPa West 21.2 km/h 38.5 km/h 48% 0.0 mm
17:59 23.5 °C 12.0 °C 1016.8 hPa West 22.7 km/h 31.4 km/h 48% 0.0 mm
18:04 23.3 °C 11.0 °C 1016.8 hPa West 20.9 km/h 35.2 km/h 46% 0.0 mm
18:09 23.1 °C 11.0 °C 1016.8 hPa West 21.2 km/h 35.2 km/h 46% 0.0 mm
18:14 23.0 °C 11.0 °C 1016.8 hPa West 24.8 km/h 33.5 km/h 46% 0.0 mm
18:19 22.7 °C 11.0 °C 1016.8 hPa NW 9.7 km/h 33.5 km/h 47% 0.0 mm
18:24 22.9 °C 11.0 °C 1016.8 hPa WSW 13.0 km/h 30.9 km/h 47% 0.0 mm
18:29 22.6 °C 11.0 °C 1016.8 hPa West 12.6 km/h 24.5 km/h 47% 0.0 mm
18:34 22.2 °C 11.0 °C 1016.8 hPa West 27.0 km/h 27.0 km/h 48% 0.0 mm
18:39 22.3 °C 12.0 °C 1016.8 hPa West 9.3 km/h 27.0 km/h 50% 0.0 mm
18:44 22.3 °C 11.0 °C 1018.2 hPa WSW 20.1 km/h 24.8 km/h 48% 0.0 mm
18:49 22.2 °C 11.0 °C 1018.2 hPa WSW 20.6 km/h 27.4 km/h 49% 0.0 mm
18:54 22.1 °C 11.0 °C 1018.2 hPa West 16.9 km/h 27.4 km/h 48% 0.0 mm
18:59 21.9 °C 11.0 °C 1018.2 hPa West 20.9 km/h 24.8 km/h 50% 0.0 mm
19:04 21.9 °C 11.0 °C 1018.2 hPa West 25.3 km/h 25.3 km/h 49% 0.0 mm
19:09 21.4 °C 11.0 °C 1018.2 hPa South 7.9 km/h 27.7 km/h 51% 0.0 mm
19:14 20.6 °C 11.0 °C 1018.2 hPa West 15.1 km/h 27.7 km/h 52% 0.0 mm
19:19 20.7 °C 11.0 °C 1018.2 hPa WNW 13.7 km/h 24.8 km/h 55% 0.0 mm
19:24 20.9 °C 12.0 °C 1018.2 hPa WSW 14.0 km/h 24.8 km/h 55% 0.0 mm
19:29 20.7 °C 11.0 °C 1018.2 hPa WNW 10.5 km/h 17.2 km/h 53% 0.0 mm
19:34 20.4 °C 11.0 °C 1018.2 hPa West 5.8 km/h 16.9 km/h 53% 0.0 mm
19:39 20.1 °C 11.0 °C 1018.2 hPa WNW 4.3 km/h 14.0 km/h 56% 0.0 mm
19:44 19.3 °C 12.0 °C 1018.8 hPa WNW 9.0 km/h 14.0 km/h 60% 0.0 mm
19:49 18.8 °C 11.0 °C 1018.8 hPa NW 4.0 km/h 11.9 km/h 61% 0.0 mm
19:54 18.7 °C 12.0 °C 1018.8 hPa North 6.1 km/h 11.1 km/h 64% 0.0 mm
19:59 19.0 °C 13.0 °C 1018.8 hPa NW 4.7 km/h 11.1 km/h 66% 0.0 mm
20:04 19.4 °C 13.0 °C 1018.8 hPa SSW 4.3 km/h 10.5 km/h 65% 0.0 mm
20:09 19.5 °C 13.0 °C 1018.8 hPa Calm   9.0 km/h 65% 0.0 mm
20:14 19.5 °C 13.0 °C 1018.8 hPa WNW 5.0 km/h 8.7 km/h 63% 0.0 mm
20:19 19.1 °C 11.0 °C 1018.8 hPa WNW 9.0 km/h 13.0 km/h 61% 0.0 mm
20:24 18.7 °C 11.0 °C 1018.8 hPa WSW 6.9 km/h 13.0 km/h 61% 0.0 mm
20:29 18.3 °C 11.0 °C 1018.2 hPa West 6.1 km/h 11.1 km/h 60% 0.0 mm
20:39 17.8 °C 10.0 °C 1018.2 hPa NE 5.8 km/h 10.1 km/h 62% 0.0 mm
20:44 17.6 °C 11.0 °C 1018.8 hPa NNW 6.1 km/h 8.7 km/h 63% 0.0 mm
20:49 17.4 °C 10.0 °C 1018.8 hPa Calm   9.0 km/h 63% 0.0 mm
20:54 17.3 °C 11.0 °C 1018.8 hPa Calm   9.0 km/h 64% 0.0 mm
20:59 17.1 °C 11.0 °C 1019.9 hPa West 5.5 km/h 8.7 km/h 65% 0.0 mm
21:04 16.9 °C 11.0 °C 1019.9 hPa WNW 1.8 km/h 8.7 km/h 66% 0.0 mm
21:09 16.7 °C 11.0 °C 1019.9 hPa West 5.0 km/h 9.0 km/h 67% 0.0 mm
21:14 16.6 °C 11.0 °C 1018.8 hPa NW 3.5 km/h 9.0 km/h 68% 0.0 mm
21:19 16.4 °C 10.0 °C 1018.8 hPa NNW 5.5 km/h 7.2 km/h 67% 0.0 mm
21:24 16.2 °C 11.0 °C 1018.8 hPa WNW 4.0 km/h 6.4 km/h 68% 0.0 mm
21:29 16.0 °C 10.0 °C 1018.8 hPa Calm   6.1 km/h 68% 0.0 mm
21:31 15.9 °C 10.0 °C 1018.8 hPa Calm   6.1 km/h 69% 0.0 mm
21:36 15.8 °C 10.0 °C 1018.8 hPa Calm   6.1 km/h 69% 0.0 mm
21:47 15.4 °C 10.0 °C 1018.8 hPa Calm   5.8 km/h 70% 0.0 mm
21:52 15.2 °C 10.0 °C 1018.8 hPa Calm   4.0 km/h 70% 0.0 mm
21:57 15.0 °C 10.0 °C 1018.8 hPa Calm   4.0 km/h 71% 0.0 mm
22:02 14.8 °C 10.0 °C 1018.8 hPa Calm   1.4 km/h 72% 0.0 mm
22:07 14.5 °C 10.0 °C 1018.8 hPa Calm   1.4 km/h 72% 0.0 mm
22:12 14.2 °C 10.0 °C 1019.9 hPa Calm     73% 0.0 mm
22:17 13.8 °C 9.0 °C 1019.9 hPa Calm     74% 0.0 mm
22:22 13.7 °C 9.0 °C 1019.9 hPa Calm     74% 0.0 mm
22:27 13.3 °C 9.0 °C 1018.8 hPa Calm     76% 0.0 mm
22:32 13.1 °C 9.0 °C 1018.8 hPa Calm     77% 0.0 mm
22:37 12.8 °C 9.0 °C 1018.8 hPa Calm     78% 0.0 mm
22:42 12.6 °C 9.0 °C 1019.9 hPa Calm   1.4 km/h 79% 0.0 mm
22:52 12.3 °C 9.0 °C 1019.9 hPa Calm   4.3 km/h 81% 0.0 mm
22:57 12.3 °C 9.0 °C 1019.9 hPa Calm   4.3 km/h 81% 0.0 mm
23:02 12.1 °C 9.0 °C 1019.9 hPa Calm     82% 0.0 mm
23:07 12.0 °C 9.0 °C 1019.9 hPa Calm     82% 0.0 mm
23:09 11.9 °C 9.0 °C 1019.9 hPa Calm     82% 0.0 mm
23:14 11.7 °C 9.0 °C 1019.9 hPa Calm     83% 0.0 mm
23:19 11.5 °C 9.0 °C 1019.9 hPa Calm     83% 0.0 mm
23:24 11.3 °C 9.0 °C 1019.9 hPa Calm     84% 0.0 mm
23:29 11.2 °C 9.0 °C 1019.9 hPa Calm     84% 0.0 mm
23:35 11.0 °C 9.0 °C 1019.9 hPa Calm     84% 0.0 mm
23:40 10.9 °C 9.0 °C 1019.9 hPa Calm     85% 0.0 mm
23:45 10.8 °C 9.0 °C 1019.9 hPa Calm     85% 0.0 mm
23:50 10.7 °C 9.0 °C 1019.9 hPa Calm     86% 0.0 mm
23:55 10.6 °C 9.0 °C 1019.9 hPa Calm     86% 0.0 mm
Données Historique de Météo Turbie

Mise a jour : 23/06/2018 11:57:12
Généré par Cumulus 1.9.4 (1099)